Location: Winthrop
(48.4780°N, 120.1850°W)
Time: 04:58:42
(UTC-08:00)

Vanguard 1 Rocket - Pass Details

Date: 05 December 2023
Orbit: 654 x 4218 km, 34.3° (Epoch: 24 February)

Event Time Altitude Azimuth Distance (km) Brightness Sun altitude
Rises 10:58:34 0° 270° (W) 5,491 11.3 18.1°
Reaches altitude 10° 11:06:05 10° 240° (WSW) 3,522 10.7 18.4°
Maximum altitude 11:08:11 11° 226° (SW) 3,177 10.7 18.5°
Drops below altitude 10° 11:10:02 10° 211° (SSW) 3,027 11.0 18.5°
Sets 11:14:44 0° 175° (S) 3,446 12.1 18.6°
